Tracking 17844 objects as of 24-August-2016
HD Live streaming from Space Station
objects crossing your sky now

SL-8 DEB

Track SL-8 DEB now!
10-day predictions


NORAD ID: 21250
Int'l Code: 1991-009BH
Perigee: 1,492.5 km
Apogee: 1,719.1 km
Inclination: 74.1 °
Period: 118.2 minutes
Semi major axis: 7976 km
RCS: 0.1024 m2 (medium)
Launch date: February 12, 1991
Source: Commonwealth of Independent States (former USSR) (CIS)
Launch site: PLESETSK MISSILE AND SPACE COMPLEX (PKMTR)

Note: This is SATELLITE DEBRIS
Your satellite tracking list
Your tracking list is empty





NASA's NSSDC Master Catalog

Two Line Element Set (TLE):
1 21250U 91009BH  16236.52588650 -.00000035  00000-0 -20129-3 0  9993
2 21250  74.0599  60.5335 0142029   8.0774  20.1322 12.18587516132888
Source of the keplerian elements: AFSPC

N2YO: 462